« Back
NWS Peachtree City, Ga » Text Product » GA Regional Weather Roundup


Printer-friendly Version
Current Version              Previous Versions:   1  2  3  4  5  6  7  8  9  

Regional Weather Roundup

767
ASUS42 KFFC 260703
RWRGA
WEATHER ROUNDUP FOR GEORGIA
NATIONAL WEATHER SERVICE PEACHTREE CITY GA
300 AM EDT SAT JUL 26 2014

NOTE: "FAIR" INDICATES FEW OR NO CLOUDS BELOW 12,000 FEET WITH NO
SIGNIFICANT WEATHER AND/OR OBSTRUCTIONS TO VISIBILITY.

* = USE WITH CAUTION. THE STATIONS MARKED WITH AN ASTERISK MAY NOT
REPORT WEATHER SUCH AS PRECIPITATION, FOG, OR THUNDER AND ARE NOT
QUALITY CONTROLLED BY NWS.

THE REMARK "TC" DENOTES TEMPERATURE READING IN DEGREES CELSIUS.

GAZ001>058-260800-
NORTH GEORGIA

CITY           SKY/WX    TMP DP  RH WIND       PRES   REMARKS
ATLANTA        PTCLDY    74  67  78 NW3       30.02F
ATHENS         CLEAR     72  70  93 CALM      30.02F
CHAMBLEE       CLEAR     69  66  90 CALM      30.03F
PEACHTREE CITY CLEAR     70  69  97 S3        30.04F FOG
ROME           CLEAR     67  66  97 NE3       30.02F
WEST ATLANTA   CLEAR     69  66  90 CALM      30.02F
GAINESVILLE    PTCLDY    70  65  84 N3        30.07F
CARTERSVILLE   CLEAR     64  62  93 CALM      30.03F


CITY           SKY/WX    TMP DP  RH WIND       PRES   REMARKS
DALTON*        CLEAR     64  64 100 CALM      30.03F
MARIETTA       CLEAR     70  68  93 N2        30.03F
$$

GAZ059>098-102>109-260800-
CENTRAL GEORGIA

CITY           SKY/WX    TMP DP  RH WIND       PRES   REMARKS
AUGUSTA-BUSH   MOCLDY    72  71  97 N3        29.99F FOG
AUGUSTA-DANIEL CLEAR     74  72  93 NW3       30.01F
COLUMBUS       CLEAR     77  73  87 CALM      30.01S
MACON          CLEAR     73  73 100 CALM      30.01S
ROBINS AFB     CLEAR     73  72  96 SE3       30.00F


CITY           SKY/WX    TMP DP  RH WIND       PRES   REMARKS
LAGRANGE*      CLEAR     73  73  98 CALM      30.03S FOG
SYLVANIA*      MOCLDY    74  74 100 CALM      30.00F
MILLEDGEVILLE* CLEAR     55  55 100 CALM      30.00F FOG
$$

GAZ099>101-110>166-260800-
SOUTH GEORGIA

CITY           SKY/WX    TMP DP  RH WIND       PRES   REMARKS
SAVANNAH       CLOUDY    78  72  81 S6        29.99F
VALDOSTA       MOCLDY    78  73  84 CALM      30.02F
ALMA           MOCLDY    75  73  93 S3        30.01F
ST SIMONS      MOCLDY    79  74  84 SW13      30.01F
FT STEWART     CLOUDY    78  73  84 SW7       29.98F
ALBANY         PTCLDY    77  75  93 CALM      30.03F
HUNTER AFB     CLOUDY    75  74  95 CALM      29.97F
MOODY AFB      MOCLDY    79  79 100 SW7       30.01F FOG
BRUNSWICK      MOCLDY    79  72  78 SW5       30.01F


CITY           SKY/WX    TMP DP  RH WIND       PRES   REMARKS
BAINBRIDGE*    PTCLDY    79  77  94 CALM      30.01F FOG
MOULTRIE*      CLEAR     77  75  94 CALM      30.03S
VIDALIA*         N/A     77  73  88 SW5       30.00F
WAYCROSS*      MOCLDY    80  77  91 SW6       30.02S
DOUGLAS*       CLOUDY    79  73  83 SW5       30.03S
$$



USA.gov is the U.S. government's official web portal to all federal, state and local government web resources and services.